Beidou DW 60

operational
NORAD ID: 61187 Int'l Des: 2024-168 Owner: CNSA Country: CN Constellation: BeiDou
MEOCIRCULAR

Über Beidou DW 60

Beschreibung wird geladen...

Live-Position

3D-Globus wird geladen...

Nächste Überflüge

Höhenverlauf

Altitude vs Time

uPlot chart will show altitude changes over time

Zweizeiliger Elementsatz

1 61187U 24168C 25299.16928726 -.00000043 00000-0 00000+0 0 9999
2 61187 54.6791 310.3531 0001871 312.2770 64.0199 1.86230436 4907
Epoch: 26. Okt. 2025 • Age: 7 hours

Aktueller Status

Höhe 21535.9 km
Geschwindigkeit 3.78 km/s
Subsatellitenpunkt -23.83°S, 51.27°W
Startdatum 19. Sept. 2024
Alter 1.1 years
Typ navigation

Technische Details

Klassifizierung Payload
Masse 1014.00 kg
Trockenmasse 850.00 kg
Gesamtmasse 1014.00 kg
Länge 2.20 m
Durchmesser 1.70 m
Spannweite 10.00 m
Form Box + 2 Pan
Hersteller CAST
Bus-Typ BD-3M
Phasenstatus In Orbit
Besitzer/Staat CNSA/CN

Große Konstellationen

Loading constellations...